Starlink 35965

operational
NORAD ID: 66631 Int'l Des: 2025-271 Owner: SPXS Country: US Constellation: starlink
LEOCIRCULAR

关于 Starlink 35965

正在加载描述...

实时位置

正在加载3D地球...

即将过境

高度历史

Altitude vs Time

uPlot chart will show altitude changes over time

两行轨道根数

1 66631U 25271Q 26062.50755883 .00053794 00000-0 18131-2 0 9990
2 66631 53.1586 168.3986 0001001 45.2638 314.8444 15.30239238 16622
Epoch: Mar 3, 2026 • Age: 35 hours

当前状态

高度 493.1 km
速度 7.62 km/s
星下点 -51.10°S, 80.53°E
发射日期 Nov 23, 2025
运行时间 0.2 years
类型 internet

技术详情

分类 Payload
质量 575.00 kg
干质量 530.00 kg
总质量 575.00 kg
长度 0.30 m
直径 4.10 m
跨度 29.00 m
形状 Box + pan
制造商 SPXS
平台类型 Starlink V2MO
阶段状态 In Orbit
所有者/国家 SPXS/US

大型星座

Loading constellations...